NOVA 1

导读

NOVA 1(诺瓦1号)是美国无线电公司研发的导航卫星,于1981年5月15日在范登堡空军基地由侦察兵-G1火箭发射升空。卫星质量约170千克,运行于轨道高度近1165千米、远1189千米近圆极地轨道,轨道倾角90.07度,属于诺瓦卫星系列,承担导航定位相关任务,国际卫星标识符为1981-044A,NORAD编号12458。

Basic Information
目录编号:
12458
目录名称:
NOVA 1
国际标识:
1981-044A
轨道中心:
EARTH
卫星名称:
NOVA 1
卫星全名:
--
卫星状态:
在轨 (已飞行16557 天)
发射日期:
1981-05-15 UTC
国别 :
美国 (US)
星等 :
--
This satellite is enrolled in the Space Conjunction Data Service (SCDS) and the current flight risk assessment level is: No High Risk
Orbit Information
数据来源 国际轨道数据 AOE轨道数据
星历时间 2026-09-13T08:01:50+0800
6小时前
查看轨道信息
2026-09-09T22:00:00+0800
3天前
查看轨道信息
半长轴 7550.244km 7550.244km
偏心率 0.001609 0.0016192
轨道倾角 89.838° 89.839°
近地点辐角 70.296° 78.867°
升交点赤经 87.317° 87.369°
平近点角 95.170° 13.264°
近地点 1159.958km 1159.881km
远地点 1184.256km 1184.333km
周期 108.818分钟 108.818分钟
每日圈数 13.233092 13.233091
Detailed Information
使用方式:
暂无
2D Orbit Map
3D Orbit Map
Orbit Altitude Analysis Chart
Orbit Inclination Analysis Chart
Orbit Comprehensive Analysis Chart
View Comprehensive Chart
Conjunction Data List
Event ID Objects TCA Miss Dist (km) Collision Risk Probability Collision Risk Index (CRI) Action
CDM_260914-020101-245804-928625
NOVA 1 (12458)
2026-09-14T
02:01:29+0000
1.858 km
极远距离
3.426192E-6 低风险 0.46
CDM_260914-215901-245805-579623
NOVA 1 (12458)
2026-09-14T
21:59:06+0000
1.968 km
极远距离
2.933031E-6 低风险 0.44
CDM_260915-175601-245804-928921
NOVA 1 (12458)
2026-09-15T
17:56:44+0000
2.113 km
极远距离
2.457474E-6 低风险 0.43
CDM_260913-060301-245805-583129
NOVA 1 (12458)
2026-09-13T
06:03:51+0000
2.608 km
极远距离
1.608324E-6 低风险 0.39
Miss Distance Evolution Trend with All Objects
Collision Probability Evolution Trend with All Objects